Regional Weather Roundup
Issued by NWS Kansas City/Pleasant Hill, MO

Home | Current Version | Previous Version | Text Only | Print | Product List | Glossary On
Versions: 1 2 3 4 5 6 7 8 9 10 11 12 13 14 15 16 17 18 19 20 21 22 23 24 25 26 27 28 29 30 31 32 33 34 35 36 37 38 39 40 41 42 43 44 45 46 47 48 49 50
000
ASUS43 KEAX 211110
RWREAX

WEATHER ROUNDUP FOR EASTERN KANSAS AND NORTHWEST MISSOURI
NATIONAL WEATHER SERVICE KANSAS CITY/PLEASANT HILL MO
500 AM CST FRI NOV 21 2014

KSZ040-057-103>105-MOZ028-029-037-043-211200-
...KANSAS CITY METROPOLITAN AREA...

CITY           SKY/WX    TMP DP  RH WIND       PRES   REMARKS
K.C. INTL      PTCLDY    24  16  71 E12       30.23F WCI  13
K.C. DOWNTOWN  CLEAR     25  16  68 E7        30.25S WCI  17
LEES SUMMIT    CLEAR     24  16  71 E9        30.24F WCI  14
OLATHE - IXD   CLEAR     24  17  74 E9        30.22S WCI  14
OLATHE - OJC   CLEAR     24  17  74 E9        30.21S WCI  14
LAWRENCE       CLEAR     22  16  78 E7        30.23F WCI  13

$$

MOZ001>008-011>017-020>025-030>033-038>040-044>046-053-054-211200-
...NORTHERN AND CENTRAL MISSOURI...

CITY           SKY/WX    TMP DP  RH WIND       PRES   REMARKS
ST. JOSEPH     PTCLDY    20  13  74 CALM      30.26F
MOSBY          MOSUNNY   25  18  74 E8        30.26F WCI  16
WARRENSBURG    CLEAR     23  18  80 NE7       30.26S WCI  15
WHITEMAN AFB   CLEAR     24  17  74 E9        30.25F WCI  14
CLINTON        CLEAR     27  21  80 CALM      30.25S
SEDALIA        CLEAR     24  17  74 E8        30.27F WCI  15
WARSAW         NOT AVBL
MARSHALL       CLEAR     27  18  69 E8        30.30S WCI  18
CHILLICOTHE      N/A     21  13  71 SE6       30.31F WCI  13
MOBERLY        PTCLDY    21  12  68 E8        30.32F WCI  12
KIRKSVILLE     PTCLDY    16  11  80 E5        30.32S WCI   9

$$

MOZ041-047>049-056>058-063>065-088>090-097-211200-
...EASTERN AND SOUTHERN MISSOURI...

CITY           SKY/WX    TMP DP  RH WIND       PRES   REMARKS
ST. LOUIS INTL CLEAR     24  13  62 E8        30.38S WCI  15
SPIRIT OF STL  CLEAR     22  15  75 E3        30.37S
COLUMBIA       CLEAR     24  15  68 E9        30.30S WCI  14
JEFFERSON CITY CLEAR     23  16  74 SE5       30.33S WCI  17
MEXICO         PTCLDY    21  18  86 E6        30.33F WCI  14
ROLLA          CLEAR     25  17  72 E13       30.27R WCI  14
LEBANON        PTCLDY    30  21  69 E8        30.24S WCI  23
OSAGE BEACH    CLEAR     25  18  74 E6        30.27S WCI  18
SPRINGFIELD    CLOUDY    40  23  50 SE12      30.19F WCI  33
BRANSON        LGT RAIN  39  27  60 SE5       30.23R
NEVADA         CLEAR     25  23  93 E6        30.21S WCI  18
JOPLIN         CLOUDY    38  28  67 E8        30.17S WCI  32
WEST PLAINS    MOCLDY    32  23  69 E7        30.27R WCI  26

$$

IAZ060-094-KSZ022-034>040-054-083-096-NEZ052-066-093-211200-
...KANSAS...SOUTHEAST NEBRASKA AND IOWA...

CITY           SKY/WX    TMP DP  RH WIND       PRES   REMARKS
TOPEKA         PTCLDY    23  16  74 E6        30.22F WCI  16
MANHATTAN      PTCLDY    21  16  81 NE6       30.20S WCI  13
EMPORIA        CLEAR     23  17  78 NE6       30.17S WCI  16
CHANUTE        CLEAR     30  23  75 E7        30.16F WCI  23
WICHITA        MOCLDY    33  23  66 NE8       30.11S WCI  26
OMAHA          PTCLDY    19  14  81 SE9       30.23F WCI   8
LINCOLN        PTCLDY    20  15  81 S8        30.20F WCI  10
FALLS CITY     PTCLDY    18  14  84 E3        30.23F
LAMONI         PTCLDY    16  10  77 SE6       30.27F WCI   7
DES MOINES     PTCLDY    16   9  74 SE7       30.31S WCI   6

$$




USA.gov is the U.S. government's official web portal to all federal, state and local government web resources and services.